sat.trackr.live / text

‹ back to catalog

TELEOS-2

NORAD 56310 · 2023-057C

PAYLOAD ACTIVE UNKNOWN

§ Identity

Operator
Country
SING
Launch date
2023-04-22
Launch site
SRILR
Launch vehicle
Mass (kg)
RCS (m²)

External: N2YO · Heavens-Above · Gunter

§ Orbital elements

Epoch: 2026-05-25T05:28:23.837088Z

Period
96.23 min
Inclination
9.9894°
Eccentricity
0.0000923
Mean motion
14.96402923 rev/d
Perigee alt
577.4 km
Apogee alt
578.7 km
Semi-major
6,956.2 km
B*
3.8977e-4
RAAN
11.3475°
Arg perigee
266.7677°
Mean anomaly
93.2431°
Rev number
16,935

§ Raw data

TELEOS-21 56310U 23057C   26145.22805367  .00005229  00000+0  38977-3 0  99972 56310   9.9894  11.3475 0000923 266.7677  93.2431 14.96402923169358

JSON: /api/v1/satellites/56310 · /tle

For live sub-satellite position, see the globe view (requires WebGL).

§ Visibility from observer

Set your observer location to see the next 7 days of passes ≥ 10°. The values pass through the URL so the page stays shareable.

No JS? Fill the form by hand. The geolocation button needs JavaScript.

§ Radio — SatNOGS DB

ModeDescriptionDownlinkUplink
FM Mode S 2.211 GHz

1 transmitter · refreshed weekly from db.satnogs.org